Starlink 30407

operational
NORAD ID: 57823 Int'l Des: 2023-138 Owner: SPXS Country: US Constellation: starlink
LEOCIRCULAR

关于 Starlink 30407

正在加载描述...

实时位置

正在加载3D地球...

即将过境

高度历史

Altitude vs Time

uPlot chart will show altitude changes over time

两行轨道根数

1 57823U 23138R 26036.10798160 .00003517 00000-0 13734-3 0 9998
2 57823 43.0020 312.7899 0001587 249.8422 110.2259 15.27561226134989
Epoch: Feb 5, 2026 • Age: 8 hours

当前状态

高度 487.0 km
速度 7.63 km/s
星下点 41.72°N, 85.64°E
发射日期 Sep 9, 2023
运行时间 2.4 years
类型 internet

技术详情

分类 Payload
质量 730.00 kg
干质量 700.00 kg
总质量 730.00 kg
长度 0.30 m
直径 4.10 m
跨度 29.00 m
形状 Box + pan
制造商 SPXS
平台类型 Starlink V2M
阶段状态 In Orbit
所有者/国家 SPXS/US

大型星座

Loading constellations...